Hourly Weather Muniz Freire

Today, 20 September, Monday

Time Temperature Precipitation Wind Pressure Humidity
00:00 +20°C° 0 mm 1 mps 706 mmHg 96%
01:00 +20°C° 0 mm 1 mps 706 mmHg 95%
02:00 +18°C° 0 mm 0 mps 706 mmHg 94%
03:00 +18°C° 0 mm 0 mps 705 mmHg 94%
04:00 +18°C° 0 mm 0 mps 706 mmHg 93%
05:00 +18°C° 0 mm 0 mps 706 mmHg 92%
06:00 +18°C° 0 mm 0 mps 706 mmHg 91%
07:00 +20°C° 0 mm 0 mps 707 mmHg 82%
08:00 +22°C° 0 mm 0 mps 707 mmHg 73%
09:00 +24°C° 0 mm 0 mps 708 mmHg 64%
10:00 +27°C° 0 mm 1 mps 707 mmHg 59%
11:00 +28°C° 0 mm 1 mps 707 mmHg 54%
12:00 +29°C° 0 mm 1 mps 707 mmHg 48%
13:00 +30°C° 0 mm 1 mps 706 mmHg 47%
14:00 +30°C° 0 mm 2 mps 706 mmHg 45%
15:00 +30°C° 0 mm 2 mps 705 mmHg 44%
16:00 +28°C° 0 mm 2 mps 705 mmHg 54%
17:00 +26°C° 0 mm 1 mps 705 mmHg 64%
18:00 +23°C° 0 mm 1 mps 705 mmHg 74%
19:00 +22°C° 0 mm 1 mps 705 mmHg 80%
20:00 +21°C° 0 mm 1 mps 706 mmHg 85%
21:00 +20°C° 0 mm 1 mps 706 mmHg 90%
22:00 +20°C° 0 mm 1 mps 706 mmHg 90%
23:00 +20°C° 0 mm 1 mps 705 mmHg 91%

Tomorrow, 21 September, Tuesday

Time Temperature Precipitation Wind Pressure Humidity
00:00 +20°C° 0 mm 1 mps 705 mmHg 91%
01:00 +20°C° 0 mm 1 mps 705 mmHg 92%
02:00 +18°C° 0 mm 2 mps 704 mmHg 92%
03:00 +18°C° 0 mm 2 mps 704 mmHg 92%
04:00 +18°C° 0 mm 2 mps 703 mmHg 92%
05:00 +18°C° 0 mm 2 mps 703 mmHg 91%
06:00 +18°C° 0 mm 2 mps 703 mmHg 91%
07:00 +23°C° 0 mm 2 mps 704 mmHg 76%
08:00 +26°C° 0 mm 1 mps 704 mmHg 61%
09:00 +30°C° 0 mm 1 mps 705 mmHg 46%
10:00 +32°C° 0 mm 1 mps 705 mmHg 40%
11:00 +35°C° 0 mm 1 mps 704 mmHg 33%
12:00 +37°C° 0 mm 1 mps 704 mmHg 26%
13:00 +37°C° 0 mm 1 mps 703 mmHg 26%
14:00 +37°C° 0 mm 1 mps 702 mmHg 25%
15:00 +37°C° 0 mm 1 mps 702 mmHg 25%
16:00 +34°C° 0 mm 1 mps 701 mmHg 32%
17:00 +31°C° 0 mm 1 mps 701 mmHg 38%
18:00 +29°C° 0 mm 1 mps 701 mmHg 45%
19:00 +28°C° 0 mm 1 mps 701 mmHg 47%
20:00 +27°C° 0 mm 1 mps 702 mmHg 48%
21:00 +27°C° 0 mm 1 mps 702 mmHg 49%
22:00 +25°C° 0.3 mm 1 mps 703 mmHg 62%
23:00 +23°C° 0.3 mm 2 mps 703 mmHg 76%

Day after tomorrow, 22 September, Wednesday

Time Temperature Precipitation Wind Pressure Humidity
00:00 +21°C° 0.3 mm 2 mps 704 mmHg 89%
01:00 +20°C° 0.1 mm 2 mps 703 mmHg 91%
02:00 +20°C° 0.1 mm 2 mps 703 mmHg 93%
03:00 +21°C° 0.1 mm 1 mps 703 mmHg 94%
04:00 +20°C° 0.1 mm 2 mps 703 mmHg 94%
05:00 +19°C° 0.1 mm 2 mps 703 mmHg 94%
06:00 +19°C° 0.1 mm 2 mps 704 mmHg 94%
07:00 +19°C° 0.1 mm 2 mps 704 mmHg 92%
08:00 +18°C° 0.1 mm 2 mps 705 mmHg 91%
09:00 +18°C° 0.1 mm 2 mps 705 mmHg 89%
10:00 +18°C° 0 mm 2 mps 706 mmHg 87%
11:00 +18°C° 0 mm 2 mps 706 mmHg 84%
12:00 +18°C° 0 mm 2 mps 706 mmHg 82%
13:00 +18°C° 0 mm 2 mps 705 mmHg 81%
14:00 +18°C° 0 mm 2 mps 705 mmHg 81%
15:00 +18°C° 0 mm 2 mps 705 mmHg 80%
16:00 +18°C° 0 mm 2 mps 705 mmHg 80%
17:00 +17°C° 0 mm 2 mps 705 mmHg 79%
18:00 +17°C° 0 mm 2 mps 706 mmHg 78%
19:00 +17°C° 0 mm 2 mps 706 mmHg 79%
20:00 +16°C° 0 mm 2 mps 707 mmHg 80%
21:00 +15°C° 0 mm 2 mps 708 mmHg 81%
22:00 +15°C° 0 mm 2 mps 707 mmHg 81%
23:00 +14°C° 0 mm 2 mps 707 mmHg 81%

23 September, Thursday

Time Temperature Precipitation Wind Pressure Humidity
00:00 +14°C° 0 mm 2 mps 707 mmHg 81%
01:00 +13°C° 0 mm 2 mps 707 mmHg 83%
02:00 +12°C° 0 mm 1 mps 707 mmHg 85%
03:00 +12°C° 0 mm 1 mps 706 mmHg 87%
04:00 +12°C° 0 mm 1 mps 707 mmHg 87%
05:00 +12°C° 0 mm 1 mps 707 mmHg 86%
06:00 +12°C° 0 mm 1 mps 707 mmHg 85%
07:00 +14°C° 0 mm 1 mps 708 mmHg 73%
08:00 +18°C° 0 mm 1 mps 708 mmHg 61%
09:00 +19°C° 0 mm 2 mps 709 mmHg 49%
10:00 +21°C° 0 mm 2 mps 709 mmHg 44%
11:00 +24°C° 0 mm 2 mps 708 mmHg 38%
12:00 +26°C° 0 mm 2 mps 708 mmHg 32%
13:00 +26°C° 0 mm 2 mps 708 mmHg 32%
14:00 +26°C° 0 mm 3 mps 707 mmHg 31%
15:00 +26°C° 0 mm 3 mps 707 mmHg 31%
16:00 +22°C° 0 mm 3 mps 707 mmHg 42%
17:00 +20°C° 0 mm 2 mps 707 mmHg 53%
18:00 +17°C° 0 mm 2 mps 707 mmHg 64%
19:00 +16°C° 0 mm 2 mps 707 mmHg 73%
20:00 +14°C° 0 mm 1 mps 708 mmHg 82%
21:00 +13°C° 0 mm 1 mps 708 mmHg 91%
22:00 +13°C° 0 mm 1 mps 708 mmHg 91%
23:00 +12°C° 0 mm 0 mps 708 mmHg 92%

24 September, Friday

Time Temperature Precipitation Wind Pressure Humidity
00:00 +11°C° 0 mm 0 mps 707 mmHg 93%
01:00 +11°C° 0 mm 0 mps 707 mmHg 92%
02:00 +11°C° 0 mm 0 mps 707 mmHg 92%
03:00 +12°C° 0 mm 1 mps 706 mmHg 92%
04:00 +12°C° 0 mm 1 mps 707 mmHg 91%
05:00 +12°C° 0 mm 1 mps 707 mmHg 90%
06:00 +12°C° 0 mm 1 mps 707 mmHg 90%
07:00 +15°C° 0 mm 1 mps 708 mmHg 77%
08:00 +20°C° 0 mm 1 mps 708 mmHg 64%
09:00 +23°C° 0 mm 1 mps 709 mmHg 51%
10:00 +25°C° 0 mm 1 mps 709 mmHg 46%
11:00 +27°C° 0 mm 1 mps 708 mmHg 41%
12:00 +29°C° 0 mm 2 mps 708 mmHg 36%
13:00 +29°C° 0 mm 2 mps 707 mmHg 36%
14:00 +29°C° 0 mm 2 mps 706 mmHg 35%
15:00 +29°C° 0 mm 2 mps 706 mmHg 35%
16:00 +26°C° 0 mm 2 mps 706 mmHg 46%
17:00 +23°C° 0 mm 2 mps 706 mmHg 58%
18:00 +20°C° 0 mm 1 mps 706 mmHg 69%
19:00 +19°C° 0 mm 1 mps 706 mmHg 75%
20:00 +18°C° 0 mm 1 mps 707 mmHg 81%
21:00 +15°C° 0 mm 1 mps 707 mmHg 87%
22:00 +15°C° 0 mm 1 mps 707 mmHg 87%
23:00 +15°C° 0 mm 1 mps 707 mmHg 88%

25 September, Saturday

Time Temperature Precipitation Wind Pressure Humidity
00:00 +14°C° 0 mm 1 mps 707 mmHg 89%
01:00 +14°C° 0 mm 1 mps 706 mmHg 91%
02:00 +14°C° 0 mm 1 mps 706 mmHg 92%
03:00 +14°C° 0 mm 1 mps 706 mmHg 93%
04:00 +14°C° 0 mm 1 mps 706 mmHg 92%
05:00 +14°C° 0 mm 1 mps 706 mmHg 91%
06:00 +14°C° 0 mm 1 mps 706 mmHg 90%
07:00 +18°C° 0 mm 1 mps 707 mmHg 79%
08:00 +20°C° 0 mm 1 mps 708 mmHg 69%
09:00 +23°C° 0 mm 2 mps 708 mmHg 58%
10:00 +25°C° 0 mm 2 mps 708 mmHg 52%
11:00 +26°C° 0 mm 2 mps 708 mmHg 47%
12:00 +28°C° 0 mm 2 mps 707 mmHg 41%
13:00 +28°C° 0 mm 2 mps 707 mmHg 41%
14:00 +29°C° 0 mm 2 mps 706 mmHg 40%
15:00 +29°C° 0 mm 2 mps 706 mmHg 39%
16:00 +27°C° 0 mm 2 mps 706 mmHg 48%
17:00 +24°C° 0 mm 2 mps 706 mmHg 57%
18:00 +22°C° 0 mm 1 mps 706 mmHg 66%
19:00 +20°C° 0 mm 1 mps 706 mmHg 72%
20:00 +19°C° 0 mm 1 mps 707 mmHg 78%
21:00 +18°C° 0 mm 1 mps 708 mmHg 85%
22:00 +18°C° 0 mm 1 mps 708 mmHg 84%
23:00 +18°C° 0 mm 1 mps 708 mmHg 84%
Show more

We Need Your Consent

Meteoprog and our Service Providers may store and access personal data such as cookies, device identifiers or other similar technologies on your device and process such data to personalise content and ads, as well as provide social media features and to analyse the traffic.

  • Store and/or access information on your device

    Cookies, device identifiers or other information can be stored or accessed on your device for the purposes indicated above.

  • Personalised ads and content, ad and content measurement, audience insights, and products development

    Ads and content can be personalised based on a profile. More data can be added to better personalise ads and content. Ad and content performance can be measured. Insights about the audience who saw the ads and content can be derived. Such data can be used to develop or improve user’s experience, systems and software.

By clicking ‘I Agree’ you will allow the use of indicated cookies, device identifiers, web beacons or other similar technologies. Your settings can be changed in the browser on your device.

For certain purposes, legitimate interests may be relied on, rather than consent. You can read more about this in our Privacy and Cookie Policy.